カタログに戻る

STARLINK-30213

運用中通信VLEO
NORAD 57504·PAYLOAD·🇺🇸 United States

打ち上げ Aug 7, 2023 から Cape Canaveral Space Force Station

Loading…

次のパス (今後24時間)

TLE

最新Source: CelesTrak SupGP

元期: Sep 14, 2026, 14:32 UTC

1 57504C 23113K   26257.60604167 -.00031670  00000+0 -11474-2 0  2577
2 57504  43.0038  29.5439 0001389 272.3407  64.0905 15.27584559    15

AllMySatでSTARLINK-30213をリアルタイム追跡

Download on the App Store